Vorticity
14 8 7 0 7 13 15 8 8 12 15 19 16 16 14 12 5 6 6 9 17 26 -3 40 -5 12 20 16 3 12 5 13 9 6 2 2 4 6 6 4 4 7 6 7
19 -2 6 3 12 13 11 9 6 7 7 8 7 11 15 17 16 10 7 -0 10 25 25 27 6 -9 13 11 19 19 2 9 21 0 3 2 8 6 10 5 4 5 6 8
13 7 2 5 11 14 14 12 8 9 12 8 13 17 13 18 20 20 16 13 -16 11 21 23 15 20 7 20 16 8 22 8 5 6 13 -5 8 8 7 9 4 4 6 7
16 -14 20 12 11 8 11 4 7 9 9 6 -2 -2 15 19 21 11 29 11 38 -7 6 17 26 30 15 13 -9 57 100 -8 8 8 7 -3 1 10 -1 8 6 6 5 6
-3 21 11 6 -3 9 -5 17 14 11 25 30 13 35 4 69 26 27 16 27 14 31 21 13 5 12 14 6 20 -12 9 -2 11 10 1 44 5 0 8 12 9 5 6 5
9 14 0 6 0 14 0 9 38 48 16 25 44 26 -14 17 6 25 41 36 17 24 -6 21 39 24 11 14 23 22 86 -7 23 -0 4 21 7 5 21 8 2 11 5 5
29 15 -1 7 9 26 2 22 28 5 13 -3 -46 52 4 18 19 13 24 19 35 18 30 12 13 29 31 6 6 -23 -10 -7 16 3 3 29 -2 -1 0 20 11 4 8 5
6 19 15 4 15 -2 -7 7 28 16 -1 -17 56 -3 -32 -11 13 28 39 -3 19 34 20 18 2 27 28 10 8 23 38 15 5 -6 4 17 17 5 21 -7 13 18 15 10
19 20 7 -7 26 3 -11 -2 44 13 33 26 7 12 -17 18 17 41 44 0 10 29 23 22 -8 8 39 19 19 -19 31 54 7 -2 5 13 -4 11 6 9 5 -3 9 12
-4 22 30 -12 10 -13 9 8 3 10 13 22 -12 2 -34 22 -3 42 43 29 7 34 -1 36 13 8 39 3 19 17 -17 -22 7 52 -2 9 -23 29 2 15 8 -9 -3 13
19 16 -45 14 16 -8 12 4 14 37 18 7 12 8 -49 13 14 14 65 17 15 35 28 5 15 8 27 17 -10 19 28 -5 23 41 10 5 -8 33 -10 7 38 24 3 17
15 18 -17 33 19 8 -36 44 22 17 -31 8 16 12 -47 7 11 18 60 35 19 11 38 -3 29 14 5 29 13 8 -28 41 -18 31 -50 8 -5 -5 -4 19 -35 3 23 1
-0 -22 30 25 12 -28 -2 13 26 21 19 -34 42 -34 -4 14 21 32 66 13 13 22 32 12 10 31 15 16 30 -16 51 53 28 21 -44 40 24 12 11 5 24 15 2 9
22 2 12 -24 -21 15 -18 3 16 27 -6 -4 -13 10 -13 20 28 19 24 29 15 32 -5 21 11 21 26 8 33 17 22 -52 19 34 -35 -0 3 7 9 6 5 10 17 8
4 12 -12 34 22 38 -27 -12 18 40 -21 6 8 34 2 21 10 21 36 12 15 23 21 11 2 1 26 14 16 22 2 36 -19 12 28 4 -1 12 8 6 11 8 9 23
5 -12 16 40 -3 26 -5 -20 38 6 -4 -23 35 26 21 23 18 21 27 37 11 18 11 14 8 10 12 -1 12 17 9 1 17 6 5 4 9 7 6 7 3 8 3 12
13 9 22 10 0 30 -1 -28 36 16 15 -32 19 17 18 14 9 12 23 30 28 8 14 10 12 12 10 7 4 13 17 14 10 6 4 10 13 6 -0 4 4 5 8 4
6 16 31 -0 39 13 -8 -36 39 30 -12 -11 21 10 18 30 18 16 21 27 33 15 15 17 12 9 11 14 2 8 7 10 13 10 13 11 11 16 12 7 7 6 7 10
12 28 24 -0 22 11 -30 -13 37 23 19 -58 16 20 21 25 9 28 18 23 35 17 2 9 19 15 11 16 11 2 11 4 10 8 8 9 11 22 17 7 9 10 7 9
29 20 25 3 24 10 -28 -2 45 30 16 4 12 15 15 19 -24 10 9 3 18 40 25 27 15 14 19 20 21 17 12 16 11 6 7 10 15 23 11 8 5 8 8 6
27 27 5 11 27 10 -13 15 53 34 -69 8 13 13 11 2 17 4 16 13 9 18 14 47 9 15 19 12 9 8 11 13 13 15 11 6 14 16 12 7 5 5 7 7
21 21 10 7 20 18 -39 18 49 -4 12 14 13 13 9 17 18 16 5 18 10 9 11 3 43 18 11 12 9 9 11 8 11 14 17 16 16 14 14 15 16 12 10 12
23 2 1 12 -16 -10 3 -8 8 12 12 14 13 13 16 19 17 15 17 11 13 5 6 12 8 12 19 22 12 7 8 9 9 13 9 13 6 5 2 7 10 10 6 7
12 9 5 26 -15 6 35 -1 12 14 13 14 12 13 15 14 14 13 14 16 8 9 5 7 17 11 6 13 8 22 18 14 12 9 8 22 4 7 10 13 5 4 5 5
26 20 6 19 17 5 -12 9 12 14 14 14 13 13 14 14 12 13 12 13 18 13 8 10 1 10 21 8 4 11 13 13 11 16 8 11 5 7 6 9 12 11 12 2
16 14 12 -3 -0 2 6 8 11 14 11 10 12 13 15 16 15 13 13 12 13 16 19 8 11 11 12 8 15 15 6 5 7 12 17 10 16 11 7 9 14 11 6 15
Height
2997 2996 2993 2990 2988 2983 2979 2973 2966 2958 2956 2952 2945 2941 2940 2940 2940 2939 2939 2941 2942 2953 2961 2972 2981 2991 2999 3009 3017 3022 3033 3041 3048 3058 3065 3074 3081 3087 3095 3103 3110 3115 3120 3126
2996 2994 2990 2986 2982 2978 2973 2966 2958 2949 2948 2945 2937 2931 2928 2927 2926 2929 2928 2931 2936 2941 2951 2960 2967 2979 2988 2997 3008 3007 3021 3028 3037 3047 3059 3069 3079 3086 3094 3099 3105 3110 3116 3122
2995 2992 2987 2983 2978 2973 2968 2961 2953 2946 2939 2935 2932 2921 2918 2916 2915 2916 2919 2919 2924 2932 2939 2949 2960 2967 2977 2986 2996 3002 3012 3025 3032 3037 3052 3062 3071 3078 3082 3090 3097 3105 3113 3119
2993 2989 2985 2981 2977 2971 2961 2957 2948 2939 2935 2924 2926 2909 2911 2908 2906 2907 2908 2911 2914 2921 2928 2937 2949 2958 2965 2975 2987 3001 2992 3011 3023 3030 3040 3048 3056 3066 3079 3089 3098 3104 3110 3115
2994 2987 2983 2978 2974 2969 2960 2950 2940 2930 2923 2922 2912 2913 2904 2898 2900 2902 2902 2904 2910 2914 2924 2929 2939 2945 2955 2967 2976 2984 2996 2997 3015 3020 3029 3039 3045 3064 3076 3082 3089 3097 3104 3110
2990 2984 2981 2977 2971 2966 2959 2945 2930 2918 2916 2913 2909 2910 2904 2901 2900 2895 2893 2898 2901 2907 2915 2922 2931 2940 2948 2955 2966 2975 2975 2983 2999 3013 3027 3039 3047 3055 3065 3074 3082 3090 3098 3105
2987 2984 2981 2976 2970 2962 2956 2943 2925 2918 2911 2906 2907 2906 2909 2901 2896 2893 2889 2886 2895 2901 2906 2912 2921 2930 2940 2949 2959 2968 2977 2981 2996 3011 3023 3034 3042 3049 3059 3070 3078 3084 3092 3099
2990 2982 2980 2976 2971 2963 2958 2954 2948 2934 2920 2913 2902 2901 2904 2900 2892 2885 2881 2880 2883 2892 2898 2905 2915 2924 2932 2947 2957 2967 2973 2984 2991 2997 3017 3029 3035 3044 3053 3066 3073 3082 3090 3097
2996 2985 2978 2977 2971 2965 2958 2952 2947 2938 2927 2916 2901 2901 2896 2893 2885 2877 2873 2877 2875 2883 2891 2901 2912 2920 2928 2942 2954 2965 2966 2974 2990 2998 3008 3022 3033 3041 3049 3060 3068 3076 3083 3091
3002 2987 2978 2974 2971 2968 2964 2957 2944 2940 2926 2916 2903 2900 2902 2887 2876 2868 2868 2871 2874 2878 2892 2901 2911 2918 2925 2936 2948 2958 2965 2964 2984 2991 3000 3015 3025 3024 3042 3049 3060 3066 3077 3083
3001 2996 2979 2975 2973 2967 2960 2955 2951 2943 2935 2928 2917 2905 2901 2894 2884 2871 2866 2870 2873 2876 2886 2898 2908 2917 2924 2934 2943 2955 2964 2971 2985 2991 2996 3010 3021 3032 3037 3043 3049 3062 3063 3078
3000 2992 2981 2973 2971 2969 2965 2959 2954 2947 2940 2936 2931 2913 2905 2895 2883 2876 2869 2870 2874 2879 2889 2898 2907 2916 2923 2931 2942 2953 2962 2971 2983 2991 3000 3011 3018 3025 3033 3038 3045 3058 3068 3076
3000 2993 2982 2973 2972 2970 2965 2960 2955 2950 2944 2938 2931 2916 2903 2895 2882 2876 2870 2874 2878 2876 2887 2899 2908 2915 2923 2930 2940 2953 2961 2965 2980 2988 2996 3005 3010 3021 3028 3037 3047 3055 3063 3072
3001 2995 2991 2986 2978 2974 2969 2962 2956 2951 2947 2940 2933 2914 2903 2886 2875 2870 2872 2876 2878 2884 2889 2893 2908 2916 2923 2931 2942 2950 2956 2966 2973 2984 2994 3000 3011 3021 3030 3038 3047 3055 3062 3069
2999 2992 2989 2980 2974 2972 2969 2965 2956 2951 2948 2944 2931 2919 2907 2896 2887 2881 2878 2879 2883 2888 2893 2898 2906 2913 2925 2934 2943 2952 2960 2967 2977 2986 2994 3005 3016 3026 3032 3039 3046 3053 3060 3067
2999 2993 2986 2977 2974 2972 2970 2966 2958 2953 2947 2942 2932 2918 2913 2905 2898 2888 2886 2886 2887 2891 2896 2902 2908 2916 2924 2933 2945 2953 2962 2972 2982 2990 2998 3008 3017 3023 3029 3036 3043 3049 3056 3062
2998 2993 2987 2978 2973 2970 2971 2966 2959 2955 2948 2941 2929 2926 2914 2907 2898 2892 2891 2889 2895 2897 2900 2905 2910 2918 2926 2934 2942 2952 2960 2969 2979 2987 2995 3004 3012 3019 3026 3033 3039 3045 3052 3058
2997 2993 2990 2980 2972 2967 2972 2970 2961 2956 2951 2946 2935 2927 2920 2910 2904 2901 2896 2895 2897 2902 2906 2910 2915 2921 2929 2935 2943 2950 2959 2968 2975 2984 2992 2999 3005 3013 3021 3028 3035 3041 3047 3054
3000 2995 2991 2987 2978 2974 2971 2965 2956 2953 2954 2949 2935 2923 2918 2916 2908 2906 2899 2898 2900 2904 2908 2912 2917 2922 2930 2938 2945 2952 2959 2966 2975 2983 2990 2996 3001 3008 3016 3023 3030 3037 3044 3049
2999 2996 2997 2989 2982 2975 2976 2969 2964 2956 2954 2948 2938 2931 2922 2914 2907 2909 2906 2907 2907 2907 2909 2914 2920 2924 2931 2938 2946 2954 2962 2969 2975 2982 2988 2995 3001 3007 3014 3020 3027 3033 3040 3045
3000 2995 2995 2991 2986 2983 2978 2971 2964 2961 2965 2948 2943 2937 2932 2924 2924 2920 2914 2915 2912 2908 2914 2918 2922 2927 2933 2940 2947 2955 2961 2968 2975 2981 2987 2993 2999 3005 3011 3016 3023 3030 3035 3041
3006 3001 2997 2994 2989 2986 2980 2974 2968 2970 2963 2956 2952 2943 2936 2932 2927 2924 2921 2917 2918 2918 2920 2920 2922 2929 2935 2942 2947 2953 2960 2966 2973 2978 2983 2989 2995 3001 3007 3014 3019 3025 3031 3037
3007 3007 3003 3001 2995 2991 2985 2980 2975 2968 2961 2955 2949 2946 2941 2936 2931 2926 2924 2924 2923 2924 2925 2928 2931 2934 2938 2944 2949 2954 2959 2965 2971 2976 2982 2987 2993 2999 3005 3011 3017 3023 3028 3033
3004 3001 2998 2996 2991 2988 2984 2980 2977 2970 2963 2957 2950 2945 2942 2938 2935 2932 2931 2929 2929 2929 2931 2933 2936 2938 2942 2946 2950 2954 2959 2964 2969 2974 2980 2985 2991 2996 3002 3007 3013 3019 3025 3029
3001 2997 2994 2992 2988 2986 2982 2978 2973 2970 2965 2961 2954 2947 2942 2939 2937 2936 2934 2933 2934 2934 2935 2937 2939 2942 2945 2948 2952 2955 2959 2964 2968 2973 2978 2983 2988 2994 2999 3005 3011 3016 3022 3027
2995 2993 2992 2989 2987 2983 2980 2975 2970 2967 2964 2960 2956 2952 2947 2943 2940 2937 2936 2935 2935 2936 2938 2940 2942 2944 2947 2949 2953 2956 2959 2963 2967 2972 2975 2981 2987 2992 2997 3003 3008 3013 3017 3022